Regional Weather Roundup
Issued by NWS

Home | Current Version | Previous Version | Graphics & Text | Print | Product List | Glossary On
Versions: 1 2 3 4 5 6 7 8 9 10 11 12 13 14 15 16 17 18 19 20 21 22 23 24 25
000
ASUS45 KCYS 212110
RWRWY

WYOMING REGIONAL WEATHER ROUNDUP
NATIONAL WEATHER SERVICE CHEYENNE WY
300 PM MDT TUE MAR 21 2017

NOTE:  "FAIR" INDICATES FEW OR NO CLOUDS BELOW 12,000 FEET
WITH NO SIGNIFICANT WEATHER AND/OR OBSTRUCTIONS TO VISIBILITY.

WYZ001-212200-
YELLOWSTONE NATIONAL PARK

CITY           SKY/WX    TMP DP  RH WIND       PRES   REMARKS
LK YELLOWSTONE   N/A     42  34  73 CALM      30.04F
W YELLOWSTONE  NOT AVBL

$$
WYZ002>013-054>058-071-098>099-212200-
NORTHERN WYOMING

CITY           SKY/WX    TMP DP  RH WIND       PRES   REMARKS
JACKSON        SUNNY     52  37  58 CALM      29.99F
CODY           CLOUDY    43  36  76 SE5       30.03F
GREYBULL       FAIR      48  38  68 CALM      30.02F
WORLAND        PTSUNNY   49  41  74 CALM      30.01F
SHERIDAN       CLOUDY    42  38  85 SE10      30.07F
BUFFALO        CLOUDY    42  39  89 S8        30.06F FOG
GILLETTE       CLOUDY    42  36  79 SE16      30.11F
HULETT         CLOUDY    36  32  87 E9        30.17F WCI  29
NEWCASTLE      MOCLDY    43  32  65 SE15      30.16F

$$
WYZ014>020-022>026-101>103-212200-
CENTRAL WYOMING

CITY           SKY/WX    TMP DP  RH WIND       PRES   REMARKS
BIG PINEY      CLOUDY    51  39  63 NE6       30.04F
PINEDALE       CLOUDY    46  34  61 E7        30.06F
DUBOIS         CLOUDY    46  36  66 SE5       30.03F
LANDER         FAIR      54  38  54 VRB3      30.00F
RIVERTON       PTSUNNY   51  37  58 NW5       30.02F
CASPER         FAIR      52  40  63 E6        30.03F
DOUGLAS        FAIR      51  34  52 SE20G29   30.08F

$$
WYZ021-027>030-104>119-212200-
SOUTHERN WYOMING

CITY           SKY/WX    TMP DP  RH WIND       PRES   REMARKS
EVANSTON       CLOUDY    55  26  32 SW21G33   30.02F
KEMMERER         N/A     55  30  38 CALM      30.04F
FORT BRIDGER   CLOUDY    58  34  41 CALM      30.06F
ROCK SPRINGS   PTSUNNY   64  27  24 S23G32    30.00F
DIXON            N/A     65  24  20 SW14G28   30.06F
RAWLINS        FAIR      63  24  22 SW24G33   30.04F
SARATOGA       FAIR      63  27  25 W13       30.07F
LARAMIE        CLOUDY    55  34  45 SE14G22   30.09F
CHEYENNE       FAIR      54  33  45 S16       30.14F
TORRINGTON     PTSUNNY   58  32  37 SE22      30.09F
PINE BLUFFS    MOCLDY    59  32  36 S14G21    30.14R

$$




USA.gov is the U.S. government's official web portal to all federal, state and local government web resources and services.